Regional Weather Roundup
Issued by NWS

Home | Current Version | Previous Version | Text Only | Print | Product List | Glossary On
Versions: 1 2 3 4 5 6 7 8 9 10 11 12 13 14 15 16 17 18 19 20 21 22 23 24 25 26 27 28 29 30 31 32 33 34 35 36 37 38 39 40 41 42 43 44 45 46 47 48 49 50
000
ASUS45 KPSR 020610
RWRAZ

ARIZONA REGIONAL HOURLY WEATHER ROUNDUP
NATIONAL WEATHER SERVICE PHOENIX AZ
1100 PM MST FRI AUG 01 2014

NOTE: FAIR INDICATES FEW OR NO CLOUDS BELOW 12,000 FEET WITH NO
SIGNIFICANT WEATHER AND/OR OBSTRUCTIONS TO VISIBILITY.

AZZ001>003-036-020700-
NORTHWEST ARIZONA

CITY           SKY/WX    TMP DP  RH WIND       PRES   REMARKS
BULLHEAD CITY  CLEAR     99  55  23 S5        29.84R
KINGMAN        MOCLDY    83  47  28 SE20      30.07S
6HR MIN TEMP:  78; 6HR MAX TEMP:  96;

$$

AZZ004>008-015-016-018-020700-
NORTH CENTRAL ARIZONA

CITY           SKY/WX    TMP DP  RH WIND       PRES   REMARKS
GRAND CANYON   CLOUDY    61  49  64 CALM      30.31R
6HR MIN TEMP:  59; 6HR MAX TEMP:  78;

WILLIAMS       MOCLDY    61  50  67 CALM      30.37F
PRESCOTT       CLOUDY    69  59  70 NW9       30.21R
6HR MIN TEMP:  68; 6HR MAX TEMP:  90;

FLAGSTAFF      CLOUDY    58  49  72 SW9       30.33R
6HR MIN TEMP:  56; 6HR MAX TEMP:  62; 6HR PCP: TRACE;

PAYSON         CLOUDY    70  57  64 VRB5      30.24
PAGE           PTCLDY    83  47  28 W5        30.08S
6HR MIN TEMP:  83; 6HR MAX TEMP:  93;

$$

AZZ009>014-017-020700-
NORTHEAST ARIZONA

CITY           SKY/WX    TMP DP  RH WIND       PRES   REMARKS
WINSLOW        CLOUDY    75  55  49 S15       30.17R
6HR MIN TEMP:  75; 6HR MAX TEMP:  93;

SAINT JOHNS    LGT RAIN  66  60  81 S7        30.23F
6HR MIN TEMP:  66; 6HR MAX TEMP:  76; 6HR PCP:  0.01;

WINDOW ROCK    MOCLDY    66  51  58 S3        30.31R
6HR MIN TEMP:  66; 6HR MAX TEMP:  83;

SHOW LOW       CLOUDY    59  54  82 SW10      30.31F
$$

AZZ023-020700-
GREATER PHOENIX AREA

CITY           SKY/WX    TMP DP  RH WIND       PRES   REMARKS
PHOENIX        CLOUDY    86  64  47 SW9       29.90F
6HR MIN TEMP:  83; 6HR MAX TEMP:  98;

BUCKEYE          N/A     81  64  57 S13       29.91F
LUKE AFB       NOT AVBL
6HR MIN TEMP:  77; 6HR MAX T  68  66 NE6       29.93R
6HR MIN TEMP:  75; 6HR MAX TEMP:  95; 6HR PCP:  0.33;

SCOTTSDALE     MOCLDY    84  65  52 N7        29.95R
6HR MIN TEMP:  83; 6HR MAX TEMP:  97;

MESA-GATEWAY   MOCLDY    88  61  40 S6        29.97R
$$

AZZ027-028-020700-
SOUTHWEST MARICOPA COUNTY AND PINAL COUNTY

CITY           SKY/WX    TMP DP  RH WIND       PRES   REMARKS
CASA GRANDE    MOCLDY    84  61  45 CALM      29.95R
6HR MIN TEMP:  84; 6HR MAX TEMP:  91;

GILA BEND      MOCLDY    84  66  54 N21G31    29.94R
$$

AZZ503-504-507>509-020700-
SOUTHEAST ARIZONA

CITY           SKY/WX    TMP DP  RH WIND       PRES   REMARKS
TUCSON         CLOUDY    78  64  61 SE23      30.06R
6HR MIN TEMP:  78; 6HR MAX TEMP:  93;

DAVIS-MONTHAN  DRIZZLE   75  64  69 SE23      30.03R
6HR MIN TEMP:  76; 6HR MAX TEMP:  92; 6HR PCP: TRACE;

NOGALES        TSTM      68  65  90 E8        30.18R FOG
6HR MIN TEMP:  67; 6HR MAX TEMP:  90; 6HR PCP:  1.31;

SIERRA VISTA   HVY RAIN  64  63  96 NE7       30.23S FOG
6HR MIN TEMP:  64; 6HR MAX TEMP:  82; 6HR PCP:  0.10;

DOUGLAS        CLOUDY    68  60  75 N14       30.15R
6HR MIN TEMP:  68; 6HR MAX TEMP:  83;

SAFFORD        LGT RAIN  73  63  70 SE12      30.10S
6HR MIN TEMP:  73; 6HR MAX TEMP:  94; 6HR PCP: TRACE;

$$

AZZ020-021-025-026-031-020700-
SOUTHWEST ARIZONA

CITY           SKY/WX    TMP DP  RH WIND       PRES   REMARKS
YUMA           CLOUDY    96  60  30 S6        29.79S
6HR MIN TEMP:  96; 6HR MAX TEMP: 105;

$$

CAZ031-033-041-043-047-048-061-020700-
SOUTHERN CALIFORNIA

CITY           SKY/WX    TMP DP  RH WIND       PRES   REMARKS
DOWNTOWN L.A.  PTCLDY    67  62  84 VRB3      29.90S
6HR MIN TEMP:  67; 6HR MAX TEMP:  80;

L.A. AIRPORT   CLOUDY    64  63  94 W8        29.91F FOG
6HR MIN TEMP:  65; 6HR MAX TEMP:  72;

SAN DIEGO      MOCLDY    71  64  78 NW7       29.92S
6HR MIN TEMP:  71; 6HR MAX TEMP:  76;

BURBANK        CLEAR     73  62  68 E5        29.91R
6HR MIN TEMP:  73; 6HR MAX TEMP:  86;

ONTARIO        CLEAR     75  63  66 W7        29.91S
6HR MIN TEMP:  75; 6HR MAX TEMP:  95;

RIVERSIDE      CLEAR     77  63  61 W5        29.91S
6HR MIN TEMP:  77; 6HR MAX TEMP:  96;

PALM SPRINGS   PTCLDY    99  55  23 CALM      29.80S
6HR MIN TEMP:  98; 6HR MAX TEMP: 104;

EL CENTRO NAS  MOCLDY    99  57  24 SE8       29.75S
6HR MIN TEMP:  98; 6HR MAX TEMP: 111;

IMPERIAL       MOCLDY    97  59  28 S7        29.75S
6HR MIN TEMP:  97; 6HR MAX TEMP: 110;

BLYTHE           N/A    N/A N/A N/A MISG      29.79R
NEEDLES        PTCLDY    98  52  21 SE8       29.85R
6HR MIN TEMP:  98; 6HR MAX TEMP: 110;

$$

NVZ020-UTZ003-020700-
SOUTHERN NEVADA-UTAH

CITY           SKY/WX    TMP DP  RH WIND       PRES   REMARKS
LAS VEGAS      PTCLDY    96  51  21 S12       29.85S
6HR MIN TEMP:  96; 6HR MAX TEMP: 105;

SALT LAKE CITY CLEAR     75  52  44 S5        30.09R
6HR MIN TEMP:  75; 6HR MAX TEMP:  90;

$$

NMZ009-TXZ055-020700-
NEW MEXICO-WEST TEXAS

CITY           SKY/WX    TMP DP  RH WIND       PRES   REMARKS
ALBUQUERQUE    HVY RAIN  63  59  87 E9        30.28F FOG
6HR MIN TEMP:  61; 6HR MAX TEMP:  81; 6HR PCP:  0.82;

EL PASO        CLOUDY    72  63  73 NE6       30.16R
6HR MIN TEMP:  71; 6HR MAX TEMP:  75;

$$


........................KEY........................
SKY/WX - SKY CONDITION/WEATHER
TMP    - TEMPERATURE IN FAHRENHEIT
DP     - DEW POINT IN FAHRENHEIT
RH     - RELATIVE HUMIDITY IN PERCENT
WIND   - DIRECTION AND SPEED IN MILES PER HOUR (MPH)
VRB    - VARIABLE WIND DIRECTION
PRES   - MEAN SEA LEVEL PRESSURE IN INCHES OF MERCURY
         F - FALLING PRESSURE   R - RISING PRESSURE
         S - STEADY PRESSURE
VSB    - VISIBILITY IN MILES
HX     - HEAT INDEX IN FAHRENHEIT
WCI    - WIND CHILL INDEX IN FAHRENHEIT
TC     - TEMPERATURE IN CELSIUS WHICH IS ALSO KNOWN AS
         TEMPERATURE IN CENTIGRADE
AFB    - AIR FORCE BASE
         LUKE AFB IS LUKE AIR FORCE BASE
         DAVIS-MONTHAN IS DAVIS-MONTHAN AIR FORCE BASE
NAS    - NAVAL AIR STATION
         EL CENTRO NAS IS EL CENTRO NAVAL AIR STATION
N/A    - NOT AVAILABLE


USA.gov is the U.S. government's official web portal to all federal, state and local government web resources and services.